Home   Weather   Phuket   Past weeks

Flag for Thailand Past Weather in Phuket, Thailand — Yesterday and Last 2 Weeks

Now
84 °F

Scattered clouds.


Feels Like: 90 °F
Forecast: 79 / 87 °F
Wind: 12 mph from East

Location: Phuket Airport

Current Time: Feb 26, 2017 at 10:09:49 am

Latest Report: Feb 26, 2017 at 9:30 am


Visibility: 5 mi

Pressure: 29.89 "Hg

Humidity: 66%

Dew Point: 72 °F

Location of PhuketLocation

Past Weather in Phuket — Graph

°F

Phuket Temperature Yesterday

Maximum temperature yesterday: 91 °F (at 1:00 pm)
Minimum temperature yesterday: 75 °F (at 5:00 am)
Average temperature yesterday: 83 °F

High & Low Weather Summary for the Past Weeks

 TemperatureHumidityPressure
High91 °F (Feb 12, 3:30 pm)94% (Feb 11, 7:30 pm)30.04 "Hg (Feb 11, 7:30 pm)
Low73 °F (Feb 12, 12:00 am)44% (Feb 14, 3:30 pm)29.77 "Hg (Feb 20, 3:00 pm)
Average82 °F71%29.90 "Hg
* Reported Feb 11 8:00 am — Feb 26 8:30 am, Phuket, Weather by CustomWeather, © 2017

Note: Actual official high and low records may vary slightly from our data, if they occured in-between our weather recording intervals... More about our weather records

Advertising

Phuket Weather History for the Previous 24 Hours

Scroll right to see more
 ConditionsComfort  
Time TempWeatherWind HumidityBarometerVisibility
8:30 am
Sun, Feb 26
84 °FPassing clouds.9 mph70%29.86 "Hg5 mi
8:00 am82 °FPassing clouds.9 mph74%29.86 "Hg5 mi
7:30 am79 °FPassing clouds.6 mph84%29.83 "Hg5 mi
7:00 am77 °FPassing clouds.No wind89%29.83 "Hg5 mi
6:30 am75 °FPassing clouds.No wind94%29.80 "Hg5 mi
6:00 am75 °FPassing clouds.No wind94%29.80 "Hg5 mi
5:30 am75 °FPassing clouds.No wind94%29.80 "Hg5 mi
5:00 am75 °FPassing clouds.No wind94%29.77 "Hg5 mi
4:30 am77 °FPassing clouds.No wind89%29.77 "Hg5 mi
4:00 am77 °FPassing clouds.No wind89%29.77 "Hg5 mi
3:30 am77 °FPassing clouds.No wind89%29.80 "Hg5 mi
3:00 am77 °FPassing clouds.No wind89%29.80 "Hg5 mi
2:30 am77 °FPassing clouds.No wind89%29.80 "Hg5 mi
2:00 am79 °FPassing clouds.No wind84%29.83 "Hg5 mi
1:30 am79 °FPassing clouds.No wind84%29.86 "Hg5 mi
1:00 am79 °FPassing clouds.No wind84%29.86 "Hg5 mi
12:00 am79 °FPassing clouds.6 mph89%29.89 "Hg5 mi
11:30 pm
Sat, Feb 25
81 °FPassing clouds.3 mph84%29.89 "Hg5 mi
11:00 pm81 °FPassing clouds.6 mph84%29.89 "Hg5 mi
10:30 pm81 °FPassing clouds.6 mph79%29.92 "Hg5 mi
10:00 pm81 °FPassing clouds.7 mph79%29.92 "Hg5 mi
9:30 pm82 °FPassing clouds.6 mph74%29.89 "Hg5 mi
9:00 pm82 °FPassing clouds.7 mph74%29.89 "Hg5 mi
8:00 pm84 °FPassing clouds.5 mph70%29.86 "Hg5 mi
7:30 pm84 °FPassing clouds.9 mph66%29.83 "Hg5 mi
7:00 pm84 °FPassing clouds.9 mph66%29.83 "Hg5 mi
6:30 pm84 °FPassing clouds.9 mph66%29.83 "Hg6 mi
6:00 pm84 °FPassing clouds.12 mph66%29.83 "HgN/A
5:30 pm86 °FPassing clouds.13 mph62%29.83 "HgN/A
5:00 pm86 °FPassing clouds.13 mph62%29.80 "HgN/A
4:30 pm86 °FPassing clouds.13 mph62%29.83 "HgN/A
4:00 pm88 °FPassing clouds.13 mph59%29.83 "HgN/A
3:30 pm88 °FScattered clouds.13 mph59%29.83 "HgN/A
3:00 pm88 °FScattered clouds.13 mph59%29.83 "HgN/A
2:30 pm90 °FScattered clouds.5 mph49%29.86 "HgN/A
2:00 pm88 °FPassing clouds.6 mph62%29.86 "HgN/A
1:30 pm91 °FPassing clouds.12 mph49%29.83 "HgN/A
1:00 pm91 °FPassing clouds.10 mph49%29.86 "HgN/A
12:30 pm90 °FPassing clouds.10 mph52%29.86 "HgN/A
12:00 pm90 °FPassing clouds.10 mph52%29.89 "HgN/A
11:30 am90 °FPassing clouds.12 mph52%29.89 "Hg6 mi
11:00 am88 °FPassing clouds.10 mph55%29.89 "Hg6 mi
10:30 am88 °FPassing clouds.12 mph59%29.92 "Hg6 mi
10:00 am86 °FPassing clouds.7 mph62%29.92 "Hg6 mi
Weather by CustomWeather, © 2017

See weather overviewHow to use our weather pages